Flag for Germany Weather past 2 weeks in Rüsselsheim, Hesse, Germany

Now
83 °F

Clear.


Feels Like: 84 °F
Forecast: 71 / 93 °F
Wind: 6 mph from East

Location: Wiesbaden Airport

Current Time: Jul 2, 2015 at 11:35:24 PM

Latest Report: Jul 2, 2015 at 10:58 PM


Visibility: N/A

Pressure: 30.10 "Hg

Humidity: 51%

Dew point: 63 °F

Location of RüsselsheimLocation

Historic Weather in Rüsselsheim — Graph

°F

Rüsselsheim temperature yesterday

Maximum temperature yesterday: 91 °F (at 4:58 PM)
Minimum temperature yesterday: 70 °F (at 3:58 AM)
Average temperature yesterday: 80 °F

Past Weeks' High & Low Weather Summary

 TemperatureHumidityPressure
High95 °F (Jul 2, 5:58 PM)100% (Jun 18, 8:55 AM)30.24 "Hg (Jun 18, 8:55 AM)
Low48 °F (Jun 23, 4:58 AM)25% (Jun 30, 6:58 PM)29.68 "Hg (Jun 23, 12:04 AM)
Average65 °F68%30.07 "Hg
* Reported Jun 17 9:58 PM — Jul 2 9:58 PM, Rüsselsheim, Weather by CustomWeather, © 2015

Note: Actual official high and low records may vary slightly from our data, if they occured in-between our weather recording intervals... More about our weather records

Advertising

Rüsselsheim weather history for previous 24 hours

 ConditionsComfort  
Time TempWeatherWind HumidityBarometerVisibility
9:58 PM
Thu, Jul 2
86 °FPassing clouds.3 mph49%30.10 "HgN/A
8:58 PM89 °FPassing clouds.3 mph42%30.08 "HgN/A
7:58 PM92 °FSunny.6 mph41%30.07 "HgN/A
6:58 PM95 °FSunny.5 mph33%30.07 "HgN/A
5:58 PM95 °FSunny.8 mph34%30.07 "HgN/A
4:58 PM95 °FSunny.6 mph34%30.07 "HgN/A
3:58 PM95 °FSunny.5 mph36%30.08 "HgN/A
2:58 PM93 °FSunny.9 mph36%30.08 "HgN/A
1:58 PM91 °FSunny.8 mph38%30.09 "HgN/A
12:58 PM90 °FSunny.5 mph41%30.10 "HgN/A
11:58 AM87 °FSunny.5 mph44%30.11 "HgN/A
10:58 AM85 °FSunny.3 mph48%30.11 "HgN/A
9:58 AM82 °FSunny.8 mph51%30.11 "HgN/A
8:58 AM79 °FSunny.9 mph54%30.11 "HgN/A
7:58 AM77 °FSunny.10 mph56%30.10 "HgN/A
6:58 AM75 °FSunny.7 mph61%30.10 "HgN/A
5:58 AM74 °FClear.8 mph60%30.09 "HgN/A
4:58 AM73 °FClear.3 mph61%30.08 "HgN/A
3:58 AM77 °FClear.1 mph54%30.08 "HgN/A
2:58 AM77 °FClear.7 mph54%30.08 "HgN/A
1:58 AM77 °FClear.8 mph53%30.07 "HgN/A
12:58 AM78 °FClear.6 mph53%30.07 "HgN/A
11:58 PM
Wed, Jul 1
77 °FClear.6 mph53%30.06 "HgN/A
Weather by CustomWeather, © 2015

See weather overviewHow to use our weather pages